Change the Weather History Date:

Wednesday, August 21, 2013

  Actual Average Record
Temperature  
Mean Temperature 75 °F -  
Max Temperature 90 °F - - ()
Min Temperature 61 °F - - ()
Cooling Degree Days 10    
Growing Degree Days 25 (Base 50)    
Moisture  
Dew Point 51 °F    
Average Humidity 49    
Maximum Humidity 70    
Minimum Humidity 22    
Precipitation  
Precipitation 0.00 in - - ()
Sea Level Pressure  
Sea Level Pressure 30.22 in    
Wind  
Wind Speed 6 mph (SSE)    
Max Wind Speed 16 mph    
Max Gust Speed 22 mph    
Visibility 10 miles    
Events      
T = Trace of Precipitation, MM = Missing Value Source: NWS Daily Summary

Daily Weather History Graph

Daily Weather History Graph

Search for Another Location

Airport or City:

Trip Planner

Search our weather history database for the weather conditions in past years. The results will help you decide how hot, cold, wet, or windy it might be!

Date:

Astronomy

Aug. 21, 2013 Rise Set
Actual Time 6:31 AM MDT 7:48 PM MDT
Civil Twilight 6:05 AM MDT 8:14 PM MDT
Nautical Twilight 5:33 AM MDT 8:45 PM MDT
Astronomical Twilight 5:00 AM MDT 9:18 PM MDT
Moon 8:03 PM MDT (8/21) 7:11 AM MDT (8/21)
Length of Visible Light 14h 09m
Length of Day
13h 16m
Full, 99% of the Moon is Illuminated
Aug 21
Full
Aug 28
Last Quarter
Sep 5
New
Sep 12
First Quarter
Sep 19
Full

Hourly Weather History & Observations

Time (MDT) Temp. Heat Index Dew Point Humidity Pressure Visibility Wind Dir Wind Speed Gust Speed Precip Events Conditions
12:15 AM 69.3 °F - 52.5 °F 55% 30.21 in 10.0 mi SSE 3.5 mph - N/A   Clear
12:35 AM 68.4 °F - 52.3 °F 57% 30.21 in 10.0 mi SSE 5.8 mph - N/A   Clear
12:55 AM 67.1 °F - 52.2 °F 59% 30.21 in 10.0 mi South 4.6 mph - N/A   Clear
1:15 AM 66.2 °F - 52.3 °F 61% 30.21 in 10.0 mi South 5.8 mph - N/A   Clear
1:35 AM 65.8 °F - 52.5 °F 62% 30.20 in 10.0 mi South 6.9 mph - N/A   Clear
1:55 AM 66.6 °F - 52.9 °F 61% 30.20 in 10.0 mi South 8.1 mph - N/A   Clear
2:15 AM 68.0 °F - 53.6 °F 60% 30.20 in 10.0 mi South 9.2 mph - N/A   Clear
2:35 AM 66.4 °F - 53.1 °F 62% 30.20 in 10.0 mi South 6.9 mph - N/A   Clear
2:55 AM 64.8 °F - 52.9 °F 65% 30.20 in 10.0 mi South 4.6 mph - N/A   Clear
3:15 AM 64.2 °F - 52.7 °F 66% 30.20 in 10.0 mi South 3.5 mph - N/A   Clear
3:35 AM 65.1 °F - 52.9 °F 65% 30.20 in 10.0 mi Calm Calm - N/A   Clear
3:55 AM 65.7 °F - 53.8 °F 65% 30.20 in 10.0 mi ENE 3.5 mph - N/A   Clear
4:15 AM 63.5 °F - 52.0 °F 66% 30.20 in 10.0 mi Calm Calm - N/A   Clear
4:35 AM 62.6 °F - 52.5 °F 70% 30.21 in 10.0 mi Calm Calm - N/A   Clear
4:55 AM 64.4 °F - 52.3 °F 65% 30.21 in 10.0 mi East 3.5 mph - N/A   Clear
5:15 AM 61.5 °F - 50.9 °F 68% 30.22 in 10.0 mi Calm Calm - N/A   Clear
5:35 AM 64.0 °F - 52.9 °F 67% 30.22 in 10.0 mi East 5.8 mph - N/A   Clear
5:50 AM 64.4 °F - 53.6 °F 68% 30.22 in 10.0 mi ENE 4.6 mph - N/A   Clear
6:50 AM 62.6 °F - 51.8 °F 68% 30.24 in 10.0 mi Calm Calm - N/A   Clear
7:50 AM 68.0 °F - 53.6 °F 60% 30.25 in 10.0 mi NNW 5.8 mph - N/A   Clear
8:50 AM 71.6 °F - 53.6 °F 53% 30.27 in 10.0 mi NE 6.9 mph - N/A   Partly Cloudy
9:50 AM 73.4 °F - 53.6 °F 50% 30.27 in 10.0 mi Calm Calm - N/A   Partly Cloudy
10:50 AM 78.8 °F - 53.6 °F 42% 30.27 in 10.0 mi ESE 4.6 mph - N/A   Partly Cloudy
11:50 AM 80.6 °F 80.3 °F 53.6 °F 39% 30.26 in 10.0 mi SE 9.2 mph - N/A   Partly Cloudy
12:50 PM 82.4 °F - 51.8 °F 35% 30.24 in 10.0 mi South 8.1 mph - N/A   Partly Cloudy
1:50 PM 87.8 °F - 48.2 °F 25% 30.22 in 10.0 mi SE 12.7 mph - N/A   Scattered Clouds
2:50 PM 89.6 °F - 46.4 °F 22% 30.20 in 10.0 mi SE 12.7 mph 21.9 mph N/A   Mostly Cloudy
3:50 PM 89.6 °F - 46.4 °F 22% 30.17 in 10.0 mi SE 13.8 mph - N/A   Mostly Cloudy
4:50 PM 89.6 °F - 48.2 °F 24% 30.16 in 10.0 mi SSE 15.0 mph - N/A   Mostly Cloudy
5:50 PM 87.8 °F - 46.4 °F 24% 30.15 in 10.0 mi SSE 16.1 mph - N/A   Mostly Cloudy
6:50 PM 87.8 °F - 44.6 °F 22% 30.16 in 10.0 mi South 11.5 mph - N/A   Mostly Cloudy
7:50 PM 82.4 °F - 46.4 °F 28% 30.18 in 10.0 mi SSE 13.8 mph - N/A   Mostly Cloudy
8:50 PM 78.8 °F - 46.4 °F 32% 30.19 in 10.0 mi SSE 13.8 mph - N/A   Scattered Clouds
10:15 PM 74.5 °F - 46.9 °F 38% 30.23 in 10.0 mi South 8.1 mph - N/A   Clear
10:35 PM 72.7 °F - 46.4 °F 39% 30.24 in 10.0 mi SSW 6.9 mph - N/A   Clear
10:55 PM 71.1 °F - 46.4 °F 41% 30.24 in 10.0 mi South 8.1 mph - N/A   Clear
11:15 PM 72.7 °F - 47.1 °F 40% 30.25 in 10.0 mi SSW 8.1 mph - N/A   Clear
11:35 PM 71.2 °F - 46.6 °F 41% 30.25 in 10.0 mi SSW 8.1 mph - N/A   Scattered Clouds
11:55 PM 70.3 °F - 46.6 °F 43% 30.25 in 10.0 mi SSW 8.1 mph - N/A   Overcast